OneWeb SL0619

operational
NORAD ID: 55160 Int'l Des: 2023-004 Owner: ONEWEBN Country: UK Constellation: oneweb
LEOCIRCULARPOLARONEWEB_TYPE

OneWeb SL0619について

説明を読み込み中...

リアルタイム位置

3D地球を読み込み中...

次回通過

高度履歴

Altitude vs Time

uPlot chart will show altitude changes over time

軌道要素

1 55160U 23004W 26036.95738932 .00000044 00000-0 79637-4 0 9993
2 55160 87.9105 31.9084 0001865 73.6925 286.4412 13.17649957150315
Epoch: Feb 5, 2026 • Age: 6 hours

現在のステータス

高度 1197.5 km
速度 7.25 km/s
衛星直下点 -3.03°S, 4.95°W
打ち上げ日 Jan 10, 2023
運用期間 3 years
タイプ internet

技術仕様

分類 Payload
質量 148.00 kg
乾燥質量 140.00 kg
総質量 148.00 kg
長さ 1.30 m
直径 1.00 m
スパン 5.00 m
形状 Trapezoid+2 pan
製造者 ONEWUS
バスタイプ ARROW
フェーズステータス In Orbit
所有者/国 ONEWEBN/UK

大規模コンステレーション

Loading constellations...